McGuire AFB, NJ

11:11 AM EDT on July 24, 2017 (GMT -0400)
McGuire Air Force Base

Weather History for KWRI - January, 2014

Change the Weather History Date:

Tuesday, January 21, 2014

  Actual Average Record
Temperature  
Mean Temperature 20 °F -  
Max Temperature 30 °F 35 °F 62 °F (2006)
Min Temperature 11 °F 20 °F 6 °F (2005)
Degree Days  
Heating Degree Days 44    
Moisture  
Dew Point 13 °F    
Average Humidity 80    
Maximum Humidity 93    
Minimum Humidity 47    
Precipitation  
Precipitation 0.01 in - - ()
Snow  
Snow 0.00 in - - ()
Snow Depth 9.00 in    
Sea Level Pressure  
Sea Level Pressure 29.86 in    
Wind  
Wind Speed 14 mph (North)    
Max Wind Speed 24 mph    
Max Gust Speed 31 mph    
Visibility 2 miles    
Events Fog , Snow    
Averages and records for this station are not official NWS values.
T = Trace of Precipitation, MM = Missing Value Source: NWS Daily Summary

Daily Weather History Graph

Daily Weather History Graph

Search for Another Location

Airport or City:

Trip Planner

Search our weather history database for the weather conditions in past years. The results will help you decide how hot, cold, wet, or windy it might be!

Date:

Astronomy

Jan. 21, 2014 Rise Set
Actual Time 7:15 AM EST 5:04 PM EST
Civil Twilight 6:46 AM EST 5:33 PM EST
Nautical Twilight 6:13 AM EST 6:06 PM EST
Astronomical Twilight 5:40 AM EST 6:39 PM EST
Moon 10:34 PM EST (1/21) 9:43 AM EST (1/21)
Length of Visible Light 10h 47m
Length of Day
9h 48m
Waning Gibbous, 75% of the Moon is Illuminated
Jan 21
Waning Gibbous
Jan 24
Last Quarter
Jan 30
New
Feb 6
First Quarter
Feb 14
Full

Hourly Weather History & Observations

Time (EST) Temp. Windchill Dew Point Humidity Pressure Visibility Wind Dir Wind Speed Gust Speed Precip Events Conditions
12:58 AM 30.6 °F 24.7 °F 24.3 °F 77% 29.88 in 10.0 mi NNE 5.8 mph - N/A   Clear
1:58 AM 28.8 °F 21.7 °F 23.0 °F 79% 29.91 in 10.0 mi North 6.9 mph - N/A   Clear
2:58 AM 29.5 °F 21.1 °F 21.6 °F 72% 29.91 in 10.0 mi North 9.2 mph - N/A   Clear
3:58 AM 28.4 °F 18.0 °F 17.6 °F 64% 29.93 in 10.0 mi NNE 12.7 mph - N/A   Overcast
4:58 AM 26.1 °F 16.8 °F 13.3 °F 59% 29.94 in 10.0 mi NNE 9.2 mph - N/A   Overcast
5:58 AM 26.2 °F 15.2 °F 13.1 °F 58% 29.93 in 10.0 mi NNE 12.7 mph - N/A   Overcast
6:58 AM 25.9 °F 14.8 °F 11.5 °F 55% 29.94 in 10.0 mi NE 12.7 mph - N/A   Overcast
7:58 AM 25.5 °F 14.9 °F 10.6 °F 53% 29.94 in 10.0 mi NE 11.5 mph - N/A   Overcast
8:58 AM 26.1 °F 15.0 °F 8.4 °F 47% 29.94 in 10.0 mi NNE 12.7 mph - N/A   Overcast
9:52 AM 26.6 °F 15.7 °F 8.6 °F 47% 29.92 in 10.0 mi North 12.7 mph - N/A   Mostly Cloudy
9:58 AM 26.6 °F 16.8 °F 8.8 °F 47% 29.94 in 10.0 mi NNE 10.4 mph - N/A   Mostly Cloudy
10:05 AM 26.6 °F 16.2 °F 8.6 °F 47% 29.92 in 10.0 mi North 11.5 mph - N/A Snow Light Snow
10:14 AM 26.6 °F 15.2 °F 12.2 °F 55% 29.92 in 5.0 mi North 13.8 mph - N/A Snow Light Snow
10:20 AM 24.8 °F 12.4 °F 15.8 °F 69% 29.92 in 2.5 mi North 15.0 mph - N/A Snow Light Snow
10:26 AM 24.8 °F 13.4 °F 15.8 °F 69% 29.92 in 1.8 mi North 12.7 mph - N/A Snow Light Snow
10:32 AM 24.8 °F 14.6 °F 17.6 °F 74% 29.92 in 1.8 mi North 10.4 mph - N/A Snow Light Snow
10:35 AM 24.8 °F 14.0 °F 17.6 °F 74% 29.92 in 1.5 mi North 11.5 mph - N/A Snow Light Snow
10:41 AM 23.0 °F 11.7 °F 19.4 °F 86% 29.92 in 1.2 mi North 11.5 mph - N/A Snow Light Snow
10:46 AM 23.0 °F 12.4 °F 19.4 °F 86% 29.93 in 1.0 mi North 10.4 mph - N/A Snow Light Snow
10:49 AM 23.0 °F 11.7 °F 19.4 °F 86% 29.92 in 1.0 mi North 11.5 mph - N/A Snow Light Snow
10:52 AM 23.0 °F 11.1 °F 19.4 °F 86% 29.92 in 1.0 mi North 12.7 mph - N/A Snow Light Snow
10:58 AM 23.0 °F 11.7 °F 19.4 °F 86% 29.94 in 1.0 mi North 11.5 mph - 0.00 in Snow Light Snow
11:07 AM 23.0 °F 11.1 °F 19.4 °F 86% 29.92 in 1.0 mi North 12.7 mph - N/A Snow Light Snow
11:13 AM 23.0 °F 11.1 °F 19.4 °F 86% 29.92 in 1.0 mi North 12.7 mph - N/A Snow Light Snow
11:19 AM 23.0 °F 11.1 °F 19.4 °F 86% 29.91 in 1.0 mi North 12.7 mph - N/A Snow Light Snow
11:22 AM 23.0 °F 10.6 °F 21.2 °F 93% 29.91 in 1.0 mi North 13.8 mph - N/A Snow Light Snow
11:28 AM 23.0 °F 11.1 °F 21.2 °F 93% 29.90 in 1.0 mi North 12.7 mph - N/A Snow Light Snow
11:31 AM 23.0 °F 9.6 °F 21.2 °F 93% 29.90 in 1.0 mi North 16.1 mph - N/A Snow Light Snow
11:34 AM 23.0 °F 10.6 °F 19.4 °F 86% 29.90 in 1.2 mi North 13.8 mph - N/A Snow Light Snow
11:43 AM 23.0 °F 9.6 °F 19.4 °F 86% 29.88 in 1.2 mi North 16.1 mph - N/A Snow Light Snow
11:49 AM 23.0 °F 10.1 °F 19.4 °F 86% 29.87 in 1.0 mi North 15.0 mph - N/A Snow Light Snow
11:52 AM 23.0 °F 9.6 °F 19.4 °F 86% 29.87 in 1.0 mi North 16.1 mph - N/A Snow Light Snow
11:55 AM 23.0 °F 9.6 °F 19.4 °F 86% 29.86 in 1.0 mi North 16.1 mph - N/A Snow Light Snow
11:58 AM 23.0 °F 9.2 °F 19.4 °F 86% 29.88 in 1.0 mi North 17.3 mph - 0.00 in Snow Light Snow
12:04 PM 23.0 °F 9.6 °F 19.4 °F 86% 29.86 in 1.0 mi North 16.1 mph 23.0 mph N/A Snow Light Snow
12:13 PM 23.0 °F 9.6 °F 19.4 °F 86% 29.85 in 0.8 mi North 16.1 mph 20.7 mph N/A Snow Light Snow
12:43 PM 23.0 °F 9.2 °F 19.4 °F 86% 29.82 in 0.8 mi North 17.3 mph 23.0 mph N/A Snow Light Snow
12:55 PM 23.0 °F 8.3 °F 19.4 °F 86% 29.81 in 0.5 mi NNE 19.6 mph 26.5 mph N/A Fog , Snow Light Freezing Fog
12:58 PM 22.6 °F 7.5 °F 19.2 °F 87% 29.83 in 0.5 mi NNE 20.7 mph 26.5 mph 0.00 in Fog , Snow Light Freezing Fog
1:40 PM 21.2 °F 7.3 °F 17.6 °F 86% 29.81 in 0.5 mi NNE 16.1 mph - N/A Fog , Snow Light Freezing Fog
1:52 PM 21.2 °F 7.3 °F 17.6 °F 86% 29.80 in 0.8 mi NNE 16.1 mph - N/A Snow Light Snow
1:55 PM 21.2 °F 7.8 °F 17.6 °F 86% 29.81 in 0.8 mi North 15.0 mph - N/A Snow Light Snow
1:58 PM 20.5 °F 5.9 °F 17.2 °F 87% 29.83 in 0.8 mi North 17.3 mph - 0.00 in Snow Light Snow
2:01 PM 19.4 °F 5.0 °F 17.6 °F 93% 29.81 in 1.0 mi NNE 16.1 mph - N/A Snow Light Snow
2:10 PM 19.4 °F 4.5 °F 15.8 °F 86% 29.80 in 0.8 mi North 17.3 mph 27.6 mph N/A Snow Light Snow
2:13 PM 19.4 °F 3.2 °F 15.8 °F 86% 29.81 in 0.8 mi NNE 20.7 mph 27.6 mph N/A Snow Light Snow
2:16 PM 19.4 °F 3.2 °F 15.8 °F 86% 29.80 in 0.5 mi NNE 20.7 mph 27.6 mph N/A Fog , Snow Light Freezing Fog
2:19 PM 19.4 °F 4.1 °F 15.8 °F 86% 29.80 in 0.5 mi NNE 18.4 mph - N/A Fog , Snow Light Freezing Fog
2:25 PM 19.4 °F 3.6 °F 15.8 °F 86% 29.80 in 0.5 mi NNE 19.6 mph - N/A Fog , Snow Light Freezing Fog
2:31 PM 19.4 °F 2.8 °F 15.8 °F 86% 29.80 in 0.8 mi NNE 21.9 mph 28.8 mph N/A Snow Light Snow
2:37 PM 19.4 °F 3.6 °F 14.0 °F 80% 29.81 in 0.8 mi NNE 19.6 mph 27.6 mph N/A Snow Light Snow
2:40 PM 19.4 °F 3.2 °F 14.0 °F 80% 29.81 in 0.8 mi NNE 20.7 mph - N/A Snow Light Snow
2:58 PM 18.5 °F 4.3 °F 14.9 °F 86% 29.82 in 0.8 mi North 15.0 mph - 0.00 in Snow Light Snow
3:01 PM 17.6 °F 2.2 °F 14.0 °F 86% 29.81 in 0.8 mi NNE 17.3 mph - N/A Snow Light Snow
3:04 PM 17.6 °F 2.2 °F 14.0 °F 86% 29.81 in 0.8 mi NNE 17.3 mph - N/A Snow Light Snow
3:16 PM 17.6 °F 3.2 °F 14.0 °F 86% 29.81 in 0.5 mi NNE 15.0 mph - N/A Fog , Snow Light Freezing Fog
3:25 PM 17.6 °F 2.7 °F 14.0 °F 86% 29.82 in 0.5 mi NNE 16.1 mph - N/A Fog , Snow Light Freezing Fog
3:58 PM 16.9 °F 2.3 °F 13.5 °F 86% 29.83 in 0.5 mi North 15.0 mph - 0.00 in Fog , Snow Light Freezing Fog
4:07 PM 15.8 °F 0.3 °F 12.2 °F 86% 29.81 in 0.8 mi NNE 16.1 mph 24.2 mph N/A Snow Light Snow
4:19 PM 15.8 °F 0.9 °F 12.2 °F 86% 29.81 in 0.8 mi North 15.0 mph - N/A Snow Light Snow
4:40 PM 15.8 °F 0.3 °F 12.2 °F 86% 29.82 in 0.8 mi North 16.1 mph - N/A Snow Light Snow
4:58 PM 16.0 °F -1.3 °F 11.8 °F 84% 29.84 in 0.8 mi North 20.7 mph - 0.00 in Snow Light Snow
5:01 PM 15.8 °F -1.5 °F 12.2 °F 86% 29.82 in 0.8 mi North 20.7 mph - N/A Snow Light Snow
5:16 PM 15.8 °F 0.3 °F 12.2 °F 86% 29.83 in 0.8 mi North 16.1 mph - N/A Snow Light Snow
5:19 PM 15.8 °F 0.3 °F 12.2 °F 86% 29.83 in 1.0 mi North 16.1 mph - N/A Snow Light Snow
5:22 PM 15.8 °F 0.9 °F 12.2 °F 86% 29.83 in 1.2 mi North 15.0 mph - N/A Snow Light Snow
5:25 PM 15.8 °F -0.6 °F 12.2 °F 86% 29.83 in 1.5 mi North 18.4 mph - N/A Snow Light Snow
5:28 PM 15.8 °F 0.9 °F 12.2 °F 86% 29.84 in 1.8 mi North 15.0 mph - N/A Snow Light Snow
5:37 PM 15.8 °F 0.9 °F 10.4 °F 79% 29.84 in 2.0 mi North 15.0 mph - N/A Snow Light Snow
5:46 PM 15.8 °F 0.3 °F 10.4 °F 79% 29.84 in 1.8 mi North 16.1 mph 21.9 mph N/A Snow Light Snow
5:52 PM 15.8 °F -1.1 °F 10.4 °F 79% 29.84 in 1.5 mi North 19.6 mph 27.6 mph N/A Snow Light Snow
5:58 PM 14.9 °F -2.3 °F 10.4 °F 82% 29.86 in 1.5 mi North 19.6 mph 27.6 mph 0.00 in Snow Light Snow
6:07 PM 14.0 °F -4.3 °F 10.4 °F 86% 29.84 in 1.2 mi North 21.9 mph 27.6 mph N/A Snow Light Snow
6:19 PM 14.0 °F -3.9 °F 10.4 °F 86% 29.84 in 1.5 mi North 20.7 mph 28.8 mph N/A Snow Light Snow
6:22 PM 14.0 °F -3.9 °F 10.4 °F 86% 29.85 in 1.8 mi North 20.7 mph 28.8 mph N/A Snow Light Snow
6:28 PM 14.0 °F -2.5 °F 8.6 °F 79% 29.85 in 2.0 mi North 17.3 mph 26.5 mph N/A Snow Light Snow
6:40 PM 14.0 °F -5.1 °F 8.6 °F 79% 29.85 in 2.5 mi North 24.2 mph 28.8 mph N/A Snow Light Snow
6:58 PM 14.2 °F -3.6 °F 9.1 °F 80% 29.87 in 2.0 mi North 20.7 mph 31.1 mph 0.00 in Snow Light Snow
7:01 PM 14.0 °F -3.9 °F 8.6 °F 79% 29.85 in 2.0 mi North 20.7 mph 29.9 mph N/A Snow Light Snow
7:04 PM 14.0 °F -3.4 °F 8.6 °F 79% 29.86 in 1.8 mi North 19.6 mph 29.9 mph N/A Snow Light Snow
7:07 PM 14.0 °F -3.0 °F 8.6 °F 79% 29.87 in 1.5 mi North 18.4 mph 29.9 mph N/A Snow Light Snow
7:13 PM 14.0 °F -3.9 °F 10.4 °F 86% 29.87 in 1.2 mi North 20.7 mph 26.5 mph N/A Snow Light Snow
7:22 PM 14.0 °F -3.9 °F 10.4 °F 86% 29.87 in 1.2 mi North 20.7 mph 26.5 mph N/A Snow Light Snow
7:34 PM 14.0 °F -3.4 °F 10.4 °F 86% 29.86 in 1.2 mi North 19.6 mph 26.5 mph N/A Snow Light Snow
7:37 PM 14.0 °F -3.9 °F 10.4 °F 86% 29.86 in 1.0 mi North 20.7 mph 26.5 mph N/A Snow Light Snow
7:43 PM 14.0 °F -3.0 °F 10.4 °F 86% 29.86 in 1.2 mi North 18.4 mph - N/A Snow Light Snow
7:46 PM 14.0 °F -3.9 °F 10.4 °F 86% 29.85 in 1.2 mi North 20.7 mph 25.3 mph N/A Snow Light Snow
7:47 PM 14.0 °F -3.9 °F 8.6 °F 79% 29.85 in 1.2 mi North 20.7 mph 25.3 mph N/A Snow Light Snow
7:56 PM 14.0 °F -3.4 °F 8.6 °F 79% 29.85 in 1.5 mi North 19.6 mph 26.5 mph N/A Snow Light Snow
7:58 PM 14.0 °F -4.7 °F 8.6 °F 79% 29.86 in 1.5 mi North 23.0 mph 29.9 mph 0.00 in Snow Light Snow
8:04 PM 14.0 °F -3.9 °F 8.6 °F 79% 29.85 in 1.8 mi North 20.7 mph 31.1 mph N/A Snow Light Snow
8:22 PM 14.0 °F -3.9 °F 8.6 °F 79% 29.85 in 2.0 mi North 20.7 mph - N/A Snow Light Snow
8:40 PM 14.0 °F -3.4 °F 8.6 °F 79% 29.85 in 3.0 mi North 19.6 mph 25.3 mph N/A Snow Light Snow
8:43 PM 14.0 °F -3.4 °F 8.6 °F 79% 29.84 in 3.0 mi North 19.6 mph - N/A Snow Light Snow
8:46 PM 14.0 °F -3.9 °F 8.6 °F 79% 29.85 in 4.0 mi North 20.7 mph - N/A Snow Light Snow
8:49 PM 14.0 °F -4.7 °F 8.6 °F 79% 29.85 in 4.0 mi North 23.0 mph 27.6 mph N/A Snow Light Snow
8:58 PM 13.3 °F -5.3 °F 8.2 °F 80% 29.86 in 4.0 mi North 21.9 mph 27.6 mph 0.00 in Snow Light Snow
9:01 PM 14.0 °F -3.4 °F 8.6 °F 79% 29.84 in 4.0 mi North 19.6 mph - N/A Snow Light Snow
9:46 PM 12.2 °F -5.8 °F 6.8 °F 79% 29.84 in 3.0 mi North 19.6 mph 26.5 mph N/A Snow Light Snow
9:55 PM 12.2 °F -5.8 °F 6.8 °F 79% 29.84 in 3.0 mi North 19.6 mph 27.6 mph N/A Snow Light Snow
9:58 PM 12.7 °F -4.1 °F 7.5 °F 80% 29.86 in 3.0 mi North 17.3 mph 27.6 mph 0.00 in Snow Light Snow
10:10 PM 12.2 °F -4.8 °F 6.8 °F 79% 29.84 in 3.0 mi North 17.3 mph 24.2 mph N/A Snow Light Snow
10:22 PM 12.2 °F -6.3 °F 6.8 °F 79% 29.83 in 3.0 mi North 20.7 mph - N/A Snow Light Snow
10:25 PM 12.2 °F -5.3 °F 6.8 °F 79% 29.83 in 2.5 mi North 18.4 mph 24.2 mph N/A Snow Light Snow
10:34 PM 12.2 °F -6.3 °F 6.8 °F 79% 29.83 in 3.0 mi North 20.7 mph - N/A Snow Light Snow
10:49 PM 12.2 °F -6.7 °F 6.8 °F 79% 29.83 in 3.0 mi North 21.9 mph 27.6 mph N/A Snow Light Snow
10:52 PM 12.2 °F -6.3 °F 6.8 °F 79% 29.82 in 2.5 mi North 20.7 mph 25.3 mph N/A Snow Light Snow
10:58 PM 11.8 °F -5.8 °F 6.3 °F 78% 29.83 in 2.5 mi North 18.4 mph - 0.00 in Snow Light Snow
11:13 PM 12.2 °F -5.8 °F 6.8 °F 79% 29.80 in 1.8 mi North 19.6 mph 28.8 mph N/A Snow Light Snow
11:19 PM 12.2 °F -5.8 °F 6.8 °F 79% 29.80 in 1.5 mi North 19.6 mph 28.8 mph N/A Snow Light Snow
11:22 PM 12.2 °F -6.3 °F 6.8 °F 79% 29.80 in 1.8 mi North 20.7 mph 28.8 mph N/A Snow Light Snow
11:43 PM 12.2 °F -5.3 °F 6.8 °F 79% 29.79 in 2.0 mi NNW 18.4 mph - N/A Snow Light Snow
11:58 PM 12.2 °F -5.3 °F 6.8 °F 79% 29.81 in 2.5 mi NNW 18.4 mph 25.3 mph 0.00 in Snow Light Snow